TimeCST,TemperatureF,Dew PointF,Humidity,Sea Level PressureIn,VisibilityMPH,Wind Direction,Wind SpeedMPH,Gust SpeedMPH,PrecipitationIn,Events,Conditions,WindDirDegrees,DateUTC
12:53 AM,53.1,46.0,77,30.01,10.0,North,8.1,-,N/A,,Clear,350,2012-12-04 06:53:00
1:53 AM,52.0,43.0,71,30.05,10.0,North,9.2,-,N/A,,Overcast,360,2012-12-04 07:53:00
2:53 AM,51.1,42.1,71,30.09,10.0,NNW,10.4,-,N/A,,Scattered Clouds,340,2012-12-04 08:53:00
3:53 AM,50.0,42.1,74,30.09,10.0,NNW,9.2,-,N/A,,Clear,340,2012-12-04 09:53:00
4:53 AM,48.9,41.0,74,30.12,10.0,NNW,8.1,-,N/A,,Clear,330,2012-12-04 10:53:00
6:53 AM,46.0,37.0,71,30.18,10.0,NNW,6.9,-,N/A,,Clear,330,2012-12-04 12:53:00
7:53 AM,44.1,36.0,73,30.19,10.0,NNW,6.9,-,N/A,,Clear,340,2012-12-04 13:53:00
8:53 AM,44.1,36.0,73,30.24,10.0,NNW,5.8,-,N/A,,Clear,330,2012-12-04 14:53:00
9:53 AM,46.9,36.0,66,30.25,10.0,NNW,6.9,-,N/A,,Clear,340,2012-12-04 15:53:00
10:53 AM,52.0,37.9,59,30.25,10.0,NNW,5.8,-,N/A,,Clear,340,2012-12-04 16:53:00
12:53 PM,59.0,33.1,38,30.24,10.0,NNW,5.8,-,N/A,,Clear,340,2012-12-04 18:53:00
1:53 PM,60.1,33.1,36,30.24,10.0,North,8.1,-,N/A,,Clear,350,2012-12-04 19:53:00
2:53 PM,61.0,33.1,35,30.25,10.0,North,5.8,-,N/A,,Clear,350,2012-12-04 20:53:00
3:53 PM,60.1,33.1,36,30.25,10.0,Calm,Calm,-,N/A,,Clear,0,2012-12-04 21:53:00
4:53 PM,57.0,30.0,36,30.27,10.0,Calm,Calm,-,N/A,,Clear,0,2012-12-04 22:53:00
5:53 PM,54.0,28.9,38,30.28,10.0,Calm,Calm,-,N/A,,Clear,0,2012-12-04 23:53:00
6:53 PM,48.0,30.0,50,30.29,10.0,South,3.5,-,N/A,,Clear,190,2012-12-05 00:53:00
7:53 PM,48.0,30.0,50,30.30,10.0,SW,3.5,-,N/A,,Clear,220,2012-12-05 01:53:00
8:53 PM,43.0,30.9,62,30.32,10.0,SW,6.9,-,N/A,,Clear,220,2012-12-05 02:53:00
9:53 PM,46.0,30.9,56,30.31,10.0,SW,6.9,-,N/A,,Clear,230,2012-12-05 03:53:00
10:53 PM,45.0,30.9,58,30.32,10.0,SW,9.2,-,N/A,,Clear,230,2012-12-05 04:53:00
11:53 PM,44.1,30.9,60,30.32,10.0,SSW,9.2,-,N/A,,Clear,210,2012-12-05 05:53:00